Theta_e
339 338 336 335 336 337 340 343 343 343 343 344 345 345 344 340 338 339 338 338 337 337 337 337 339 338 331 322 319 319 319 322 322 320 321 323 322 321 323 325 325 327
340 338 337 336 337 338 340 342 343 343 343 344 344 344 343 341 340 339 337 337 338 338 338 338 338 338 335 329 322 319 321 323 322 320 320 321 322 321 322 324 324 325
343 338 338 337 337 338 340 342 344 344 343 344 345 344 343 343 342 341 338 337 338 338 337 338 338 338 337 334 327 321 320 321 321 319 319 319 320 320 320 321 322 323
347 341 338 338 338 338 340 342 343 344 344 344 344 344 343 343 343 342 340 338 338 338 337 338 339 337 335 332 328 323 319 319 320 319 319 319 319 319 319 319 320 320
349 346 341 339 339 340 341 342 342 343 343 343 344 344 344 343 343 342 341 339 338 338 338 339 339 339 336 331 326 322 319 318 319 320 319 319 319 319 319 319 319 319
352 349 345 342 341 342 342 342 342 342 343 343 343 344 344 343 342 342 340 339 338 339 340 341 340 340 339 335 327 321 319 318 319 320 320 319 319 319 319 319 319 319
353 352 349 345 343 342 343 343 341 342 342 342 342 343 343 344 343 342 341 339 339 340 340 341 341 339 339 338 332 323 319 319 320 321 321 320 319 319 319 319 319 319
354 353 351 348 345 344 344 343 341 341 342 342 342 341 342 343 343 342 341 341 340 340 341 341 341 338 337 338 336 327 321 319 319 321 323 322 321 320 319 319 319 319
354 354 352 350 347 344 344 343 341 341 342 342 342 341 341 342 342 342 342 341 341 341 341 341 340 340 338 339 338 332 324 319 319 321 323 323 322 321 320 319 319 320
354 353 353 352 349 345 343 342 341 341 341 341 341 341 341 341 342 343 342 342 342 341 342 342 341 341 340 340 339 336 329 321 318 319 321 323 322 321 321 320 319 320
354 353 353 352 349 346 344 343 342 342 341 341 341 341 341 341 341 343 343 343 342 342 342 341 342 342 341 341 340 338 334 326 320 318 319 321 322 321 320 320 320 320
354 353 351 350 348 346 344 343 343 342 341 341 341 341 341 342 342 343 343 343 343 342 342 342 342 343 342 342 341 339 337 333 326 320 318 319 321 321 320 320 320 320
354 352 349 348 347 345 344 344 344 342 341 340 341 342 343 343 343 343 343 343 344 344 344 343 344 344 344 344 342 341 339 338 334 327 321 318 319 321 322 320 319 320
354 352 348 346 345 346 346 345 344 343 341 341 342 343 343 343 343 343 344 344 345 345 345 345 345 346 346 345 344 343 341 340 338 335 330 322 318 319 322 322 320 319
354 353 350 347 346 347 348 347 345 344 343 342 342 343 343 344 344 344 345 346 346 347 347 347 347 347 347 347 346 345 343 342 341 340 337 330 322 318 320 323 321 320
355 354 352 349 348 347 347 347 345 345 345 344 343 344 344 345 345 346 347 347 347 348 349 349 349 348 348 348 347 347 346 345 345 343 341 337 330 321 318 321 323 321
356 354 353 351 349 348 347 346 346 346 346 345 345 346 347 347 348 348 348 348 349 349 349 349 349 349 350 350 349 349 348 348 348 347 344 341 337 329 320 318 321 322
356 355 354 352 351 350 348 347 347 347 348 348 347 346 347 349 349 349 349 349 350 350 350 350 351 351 351 351 350 350 350 350 350 349 346 344 342 337 327 319 318 321
356 356 354 352 351 350 349 350 349 350 350 349 347 347 348 350 350 350 350 350 350 350 350 351 352 353 353 353 353 353 353 352 351 350 348 346 344 341 334 325 320 319
356 356 354 352 351 351 352 353 352 351 350 349 349 349 350 351 350 350 350 350 350 351 351 353 354 355 355 355 354 355 355 354 352 351 350 348 346 343 339 333 325 320
356 356 354 353 353 353 354 354 353 352 351 350 351 351 350 350 350 350 350 350 351 352 353 355 357 357 357 356 356 356 356 354 353 351 350 349 347 344 341 338 332 324
356 355 355 355 355 355 355 355 354 353 351 351 352 352 351 351 351 351 351 352 353 354 356 358 359 359 358 358 358 357 356 354 353 351 350 348 346 344 342 341 337 329
357 356 356 356 356 357 356 354 354 353 352 352 353 353 353 352 352 353 353 354 356 356 358 360 360 360 360 359 358 357 355 354 352 351 349 348 346 345 343 341 339 332
358 357 357 357 357 357 356 354 353 353 352 353 353 353 352 352 353 355 356 357 358 359 360 361 361 360 359 358 358 356 355 354 352 351 349 347 346 344 343 342 338 333
359 358 358 358 358 357 356 355 354 353 353 354 354 354 353 354 356 357 358 359 360 360 361 361 360 360 359 358 357 356 355 353 351 350 348 347 346 345 343 341 338 333
359 359 359 359 358 357 357 356 355 355 355 356 356 356 356 357 358 359 359 360 361 361 361 360 360 359 358 357 356 355 354 352 350 349 348 347 346 344 342 341 337 333
Wind_Speed
41 41 40 39 38 37 35 34 33 33 31 30 29 29 28 26 23 23 22 21 21 20 19 17 16 15 14 13 13 14 14 15 15 17 18 18 18 18 18 18 18 18
42 41 41 40 39 38 37 35 34 34 32 31 30 29 29 27 25 23 22 22 22 21 20 19 18 17 16 15 14 15 15 16 17 19 20 19 19 19 18 19 19 20
43 42 42 42 41 39 37 36 35 35 33 31 30 30 30 28 26 25 23 22 24 23 21 20 19 18 18 16 15 16 16 17 18 20 20 20 20 20 19 20 20 20
43 43 43 42 41 40 37 36 36 36 34 33 32 31 30 29 28 27 25 24 25 24 22 22 21 20 19 18 17 17 18 18 18 20 20 20 20 20 20 20 20 20
43 43 43 42 41 40 39 37 37 36 36 35 33 32 31 30 30 29 27 27 27 26 24 23 22 21 20 19 19 19 19 19 20 21 21 20 20 20 20 20 21 21
43 43 43 43 41 41 40 39 37 36 36 36 34 33 32 32 31 31 30 29 29 28 26 25 24 24 23 21 20 21 21 21 21 22 22 21 21 21 21 22 22 22
43 43 43 43 42 42 41 40 38 37 37 37 36 35 34 33 33 32 31 31 30 30 29 28 27 26 25 24 23 23 23 23 23 23 23 23 23 23 23 23 22 22
42 42 42 43 43 43 42 41 40 39 38 38 38 37 35 35 34 34 33 32 32 32 31 30 29 27 27 26 26 26 25 25 26 25 24 24 25 25 25 24 23 22
42 42 42 43 44 44 44 43 41 40 39 39 39 38 37 36 36 35 34 33 33 34 33 32 31 30 29 28 28 28 28 27 27 27 26 26 26 26 26 26 25 24
42 42 42 43 44 45 45 44 43 41 40 40 40 39 39 38 37 36 35 35 35 35 35 34 33 32 31 30 29 29 29 29 29 29 28 27 27 27 27 27 26 25
43 42 43 44 44 46 46 46 45 43 42 41 41 41 40 39 38 38 37 37 37 37 37 36 36 34 33 32 30 29 29 30 30 30 30 29 28 28 29 29 27 26
44 43 43 44 44 45 47 47 47 45 43 42 42 42 41 40 39 39 39 39 39 38 38 38 37 36 35 34 33 31 30 31 31 30 30 30 30 30 30 30 29 27
45 44 42 43 44 45 46 48 48 47 46 44 43 42 42 41 40 40 40 40 39 39 38 38 38 38 37 36 35 33 32 31 31 31 30 30 31 31 30 30 29 27
46 44 42 42 43 44 46 48 49 49 48 46 45 44 43 42 41 41 40 40 40 39 39 39 39 40 39 38 37 35 33 32 32 32 31 30 31 32 31 30 30 28
47 45 43 42 43 45 47 48 49 50 49 48 47 46 45 43 42 41 41 41 40 40 40 40 40 41 40 39 38 35 33 33 33 33 33 32 31 32 32 31 31 29
48 46 45 44 45 46 47 48 49 49 50 49 48 47 46 44 43 42 42 42 41 41 41 41 41 41 41 40 37 34 32 32 32 33 35 34 32 32 33 33 31 30
49 48 47 47 47 47 47 48 48 49 50 49 48 47 46 45 44 44 43 42 42 42 41 41 41 41 41 39 36 32 30 30 30 32 36 36 33 32 34 33 32 30
50 49 48 48 48 48 48 48 48 49 50 50 49 48 46 46 45 44 43 42 42 41 41 41 40 40 40 38 33 28 29 30 30 32 36 37 35 33 33 33 33 32
51 50 49 49 49 48 48 48 49 50 51 50 49 47 46 46 45 44 43 43 42 41 41 40 40 39 39 36 31 27 28 30 31 32 35 36 34 33 32 32 32 32
51 51 50 49 49 48 48 49 50 51 50 49 48 47 47 47 45 44 43 42 41 41 40 39 39 38 37 34 29 27 27 28 29 31 34 34 33 31 31 32 33 33
51 51 50 49 49 49 49 49 50 50 50 49 48 48 47 46 45 44 43 42 41 40 39 38 38 37 36 32 28 25 25 25 27 30 32 33 32 30 30 32 34 34
51 50 50 49 49 49 49 49 50 50 49 49 48 47 47 46 45 44 42 41 40 39 38 38 37 36 34 30 27 24 24 25 28 31 33 33 31 30 30 30 32 33
50 50 50 50 49 49 49 49 49 49 49 48 48 47 46 45 44 43 42 41 39 38 38 38 37 35 33 29 26 24 24 25 27 30 33 33 30 28 29 29 31 31
52 50 50 50 50 49 48 48 47 47 48 48 48 47 45 44 43 42 41 40 38 38 37 37 36 34 32 29 26 25 24 24 27 30 32 31 28 26 27 28 29 29
52 51 51 50 50 49 48 47 46 46 47 47 47 46 44 43 42 41 40 39 38 37 36 35 35 33 31 29 27 26 25 23 25 29 31 29 27 25 25 27 28 27
53 52 51 51 50 49 48 47 46 46 46 46 45 44 42 41 41 40 39 39 38 37 35 34 33 31 29 28 26 26 24 23 24 27 29 28 25 24 25 27 27 25
Wind_Direction
225 222 222 223 224 225 224 220 219 221 223 225 226 227 227 227 223 218 215 213 215 220 223 223 223 226 226 224 226 227 221 215 215 215 213 214 217 218 217 217 215 210
225 224 223 223 224 225 225 222 221 223 224 226 228 229 229 229 226 223 221 215 214 219 224 225 226 226 227 229 229 227 221 218 218 215 213 213 216 219 218 218 219 215
226 225 224 223 224 224 224 223 222 224 226 226 227 228 228 229 227 227 225 219 217 221 224 227 228 227 229 232 234 231 224 220 221 218 214 212 214 219 220 221 223 222
226 226 225 224 225 225 225 224 222 223 225 226 226 227 228 229 229 229 227 222 221 223 225 228 229 228 229 233 235 235 229 224 224 222 217 213 215 219 222 224 226 225
227 227 226 225 225 225 225 225 223 223 224 226 226 226 227 228 229 229 228 225 222 224 226 227 230 228 228 231 234 235 233 227 225 225 223 218 218 220 223 227 229 227
227 227 226 226 225 226 226 225 225 224 225 226 226 227 228 228 228 229 228 226 224 224 226 227 229 229 228 230 232 233 233 230 227 227 226 223 221 222 224 228 230 229
227 228 227 227 226 226 226 226 226 225 226 227 227 228 228 228 229 230 229 227 225 226 228 229 230 231 231 231 231 232 232 230 228 228 228 227 224 224 225 228 230 230
228 228 228 227 227 226 226 226 226 226 227 227 227 228 229 229 230 231 231 229 228 228 230 231 232 233 234 234 234 233 232 230 228 226 228 229 227 226 226 228 231 232
228 229 228 228 227 226 226 225 225 227 227 227 227 228 229 230 231 232 233 232 231 231 232 233 235 235 236 237 237 236 235 233 231 228 227 230 230 230 228 229 231 234
227 228 228 228 227 226 226 225 225 227 228 229 229 229 229 231 232 233 234 235 234 234 234 236 237 237 238 239 240 240 238 238 236 234 231 232 234 235 234 233 233 234
225 227 227 228 227 226 226 225 225 226 229 230 230 230 231 231 232 233 235 236 236 236 237 238 239 240 241 242 243 243 241 240 241 240 237 236 236 238 240 240 237 235
224 225 227 228 228 226 226 225 225 226 229 230 230 230 231 232 233 234 235 237 238 238 239 241 242 242 243 244 245 244 243 243 243 244 242 241 240 239 241 242 240 238
223 225 227 228 228 227 226 225 225 227 229 231 231 231 232 233 234 236 237 238 239 240 241 242 243 243 244 244 245 245 246 246 247 248 247 245 244 242 241 242 242 240
224 225 226 228 228 228 227 226 226 227 229 231 232 232 232 234 236 238 238 240 241 242 243 244 244 244 244 245 245 245 248 249 250 252 251 248 246 245 244 244 243 242
224 225 226 227 228 228 227 226 227 228 230 231 232 233 234 234 237 239 240 241 242 242 243 244 245 245 246 246 246 247 250 252 253 255 254 251 248 245 245 247 246 243
224 225 225 226 226 227 228 227 227 228 229 231 232 233 234 234 236 238 239 241 242 242 243 244 246 247 248 248 249 251 255 257 258 258 256 253 250 247 246 248 249 247
225 225 225 226 226 227 228 228 228 228 229 231 232 233 234 235 236 237 239 241 242 243 245 246 247 248 248 249 250 254 257 257 259 260 258 255 252 250 249 249 250 250
225 225 225 226 226 227 228 228 228 228 228 230 231 233 234 235 236 237 239 240 242 244 246 247 249 249 249 250 251 254 256 255 256 258 259 257 254 251 250 249 250 253
225 224 225 226 227 227 227 228 228 228 228 229 231 232 233 234 236 238 239 241 242 244 246 248 249 250 250 250 250 252 254 254 254 256 258 259 257 253 251 249 251 255
224 224 225 226 227 227 226 227 227 228 228 229 230 231 232 233 235 237 239 241 243 245 247 249 250 251 251 250 249 251 252 252 253 254 257 259 259 257 253 251 252 255
224 225 225 226 226 226 226 226 227 227 228 229 229 230 231 233 235 236 238 240 243 245 246 248 250 251 251 250 250 251 251 250 249 251 255 257 257 257 256 254 254 256
224 225 225 224 224 224 225 225 226 227 228 228 228 230 232 234 235 236 238 239 241 243 245 247 249 250 250 251 252 251 248 246 246 247 251 254 255 257 256 255 255 255
223 224 223 223 223 223 224 225 226 227 227 228 228 229 231 233 234 235 237 239 240 242 244 245 247 248 249 250 250 248 244 244 245 246 248 251 253 256 257 256 254 254
223 223 223 221 221 223 224 225 225 226 227 227 228 229 231 232 234 235 236 238 240 242 243 244 245 247 247 247 246 242 240 242 245 245 246 248 250 253 255 254 253 254
221 222 223 222 222 223 224 224 224 225 226 227 228 229 231 232 232 233 235 236 238 240 241 242 244 245 245 244 242 239 237 240 243 244 244 245 247 251 250 250 251 252
220 221 222 222 223 223 223 223 223 223 224 225 226 227 229 230 231 231 233 234 235 237 238 239 241 243 244 244 241 237 234 236 240 241 241 242 246 247 246 248 248 246